TWY27 KBJC-KSTP

Flight info

Callsign TWY27
Flight time N/A
Altitude 39000
Route MRSHH2 CHUWY ENCEE ENCEE3
Aircraft E35L/M-SABDFGRW/S

Departure

Time 2026-05-08 03:46
Airport Rocky Mountain Metropolitan Airport (KBJC)

Arrival

Time N/A
Airport Saint Paul Downtown Holman Field (KSTP)
Time Latitude Longitude Altitude Speed Heading
2026-05-08 03:12 39.90695 -105.10841 5579 ft 0 kts 301°
2026-05-08 03:14 39.90584 -105.10641 5566 ft 0 kts 301°
2026-05-08 03:14 39.90563 -105.10584 5563 ft 0 kts 301°
2026-05-08 03:43 39.90564 -105.10586 5564 ft 1 kts 301°
2026-05-08 03:43 39.90566 -105.10613 5565 ft 5 kts 235°
2026-05-08 03:43 39.90525 -105.10590 5563 ft 10 kts 129°
2026-05-08 03:43 39.90484 -105.10550 5561 ft 9 kts 182°
2026-05-08 03:44 39.90423 -105.10481 5556 ft 15 kts 124°
2026-05-08 03:44 39.90356 -105.10354 5548 ft 14 kts 124°
2026-05-08 03:44 39.90296 -105.10240 5541 ft 11 kts 125°
2026-05-08 03:44 39.90254 -105.10162 5537 ft 9 kts 124°
2026-05-08 03:45 39.90208 -105.10143 5536 ft 8 kts 208°
2026-05-08 03:45 39.90167 -105.10183 5538 ft 6 kts 223°
2026-05-08 03:45 39.90161 -105.10236 5539 ft 5 kts 299°
2026-05-08 03:45 39.90189 -105.10289 5542 ft 17 kts 304°
2026-05-08 03:46 39.90432 -105.10749 5564 ft 105 kts 304°
2026-05-08 03:46 39.90990 -105.11799 5647 ft 168 kts 305°
2026-05-08 03:46 39.91698 -105.13084 6226 ft 189 kts 306°
2026-05-08 03:46 39.92506 -105.14528 6892 ft 213 kts 306°
2026-05-08 03:47 39.93250 -105.16123 8025 ft 213 kts 294°
2026-05-08 03:47 39.94115 -105.17664 9012 ft 223 kts 326°
2026-05-08 03:47 39.95595 -105.18240 9988 ft 240 kts
2026-05-08 03:47 39.97198 -105.17600 11017 ft 247 kts 20°
2026-05-08 03:48 39.98758 -105.16720 12156 ft 244 kts 18°
2026-05-08 03:48 40.00331 -105.15874 13012 ft 255 kts 18°
2026-05-08 03:48 40.02099 -105.14939 13035 ft 298 kts 17°
2026-05-08 03:48 40.04120 -105.13879 13518 ft 322 kts 18°
2026-05-08 03:49 40.06212 -105.12774 14511 ft 326 kts 18°
2026-05-08 03:49 40.08141 -105.11191 15312 ft 338 kts 39°
2026-05-08 03:49 40.09594 -105.08699 15983 ft 349 kts 50°
2026-05-08 03:49 40.11049 -105.06130 16684 ft 353 kts 49°
2026-05-08 03:50 40.12515 -105.03566 17399 ft 357 kts 48°
2026-05-08 03:50 40.14022 -105.00933 18102 ft 361 kts 48°
2026-05-08 03:50 40.15546 -104.98272 18782 ft 366 kts 48°
2026-05-08 03:50 40.17075 -104.95579 19467 ft 369 kts 47°
2026-05-08 03:51 40.18748 -104.93027 20064 ft 373 kts 44°
2026-05-08 03:51 40.20442 -104.90480 20731 ft 376 kts 44°
2026-05-08 03:51 40.22186 -104.87864 21332 ft 382 kts 44°
2026-05-08 03:51 40.23927 -104.85249 21947 ft 386 kts 44°
2026-05-08 03:52 40.25712 -104.82565 22606 ft 389 kts 44°
2026-05-08 03:52 40.27485 -104.79898 23188 ft 394 kts 44°
2026-05-08 03:52 40.29295 -104.77172 23828 ft 397 kts 44°
2026-05-08 03:52 40.31113 -104.74433 24459 ft 400 kts 44°
2026-05-08 03:53 40.32953 -104.71660 25058 ft 402 kts 44°
2026-05-08 03:53 40.34818 -104.68845 25582 ft 406 kts 44°
2026-05-08 03:53 40.36559 -104.66213 26296 ft 404 kts 44°
2026-05-08 03:53 40.38411 -104.63412 27025 ft 402 kts 44°
2026-05-08 03:54 40.40213 -104.60683 27729 ft 400 kts 43°
2026-05-08 03:54 40.41913 -104.58106 28384 ft 399 kts 43°
2026-05-08 03:54 40.43815 -104.55222 29161 ft 395 kts 42°
2026-05-08 03:54 40.45613 -104.52493 29752 ft 396 kts 43°
2026-05-08 03:55 40.47393 -104.49789 30424 ft 395 kts 43°
2026-05-08 03:55 40.49191 -104.47053 31157 ft 393 kts 42°
2026-05-08 03:55 40.50965 -104.44353 31797 ft 393 kts 42°
2026-05-08 03:55 40.52737 -104.41654 32511 ft 390 kts 43°
2026-05-08 03:56 40.54499 -104.38967 33197 ft 389 kts 42°
2026-05-08 03:56 40.56263 -104.36276 33878 ft 387 kts 42°
2026-05-08 03:56 40.58027 -104.33580 34463 ft 387 kts 42°
2026-05-08 03:56 40.59770 -104.30917 34912 ft 388 kts 43°
2026-05-08 03:57 40.61517 -104.28243 35379 ft 387 kts 43°
2026-05-08 03:57 40.63272 -104.25555 35886 ft 385 kts 43°
2026-05-08 03:57 40.65025 -104.22868 36417 ft 385 kts 43°
2026-05-08 03:57 40.66768 -104.20193 36985 ft 385 kts 42°
2026-05-08 03:58 40.68494 -104.17544 37560 ft 385 kts 42°
2026-05-08 03:58 40.70232 -104.14872 37932 ft 386 kts 43°
2026-05-08 03:58 40.71973 -104.12194 38424 ft 386 kts 42°
2026-05-08 03:58 40.73711 -104.09518 38889 ft 384 kts 42°
2026-05-08 03:59 40.75463 -104.06821 39022 ft 393 kts 42°
2026-05-08 03:59 40.79068 -104.01259 39074 ft 405 kts 42°
2026-05-08 04:00 40.82793 -103.95499 39019 ft 417 kts 43°
2026-05-08 04:00 40.86614 -103.89580 39087 ft 429 kts 43°
2026-05-08 04:01 40.90546 -103.83479 39042 ft 440 kts 43°
2026-05-08 04:01 40.94532 -103.77280 39025 ft 450 kts 43°
2026-05-08 04:02 40.98641 -103.70877 39034 ft 460 kts 43°
2026-05-08 04:02 41.02803 -103.64376 39034 ft 469 kts 43°
2026-05-08 04:03 41.07040 -103.57746 39039 ft 476 kts 43°
2026-05-08 04:03 41.13446 -103.47689 39026 ft 472 kts 43°
2026-05-08 04:04 41.17613 -103.41132 39039 ft 460 kts 43°
2026-05-08 04:04 41.21686 -103.34708 38998 ft 451 kts 44°
2026-05-08 04:05 41.25681 -103.28394 38980 ft 441 kts 44°
2026-05-08 04:05 41.29580 -103.22220 38984 ft 432 kts 43°
2026-05-08 04:06 41.33397 -103.16164 38990 ft 424 kts 43°
2026-05-08 04:06 41.37146 -103.10202 38974 ft 418 kts 43°
2026-05-08 04:07 41.40845 -103.04310 38941 ft 411 kts 43°
2026-05-08 04:07 41.44484 -102.98502 38944 ft 405 kts 43°
2026-05-08 04:08 41.48063 -102.92779 38946 ft 400 kts 43°
2026-05-08 04:08 41.51508 -102.87026 38954 ft 402 kts 53°
2026-05-08 04:09 41.54449 -102.80761 38940 ft 395 kts 51°
2026-05-08 04:09 41.57333 -102.74601 38960 ft 391 kts 51°
2026-05-08 04:10 41.60186 -102.68469 38951 ft 386 kts 51°
2026-05-08 04:10 41.62995 -102.62416 38947 ft 382 kts 51°
2026-05-08 04:11 41.65763 -102.56441 38963 ft 378 kts 51°
2026-05-08 04:11 41.68513 -102.50493 38966 ft 374 kts 51°
2026-05-08 04:12 41.71232 -102.44601 38930 ft 370 kts 51°
2026-05-08 04:12 41.73923 -102.38760 38955 ft 374 kts 51°
2026-05-08 04:13 41.76718 -102.32683 38933 ft 394 kts 52°
2026-05-08 04:13 41.79624 -102.26346 38962 ft 410 kts 52°
2026-05-08 04:14 41.82683 -102.19661 38910 ft 427 kts 52°
2026-05-08 04:14 41.85816 -102.12800 38937 ft 443 kts 52°
2026-05-08 04:15 41.89077 -102.05640 38937 ft 457 kts 53°
2026-05-08 04:15 41.92448 -101.98223 38932 ft 469 kts 53°
2026-05-08 04:16 41.95858 -101.90699 38920 ft 475 kts 53°
2026-05-08 04:16 41.99272 -101.83148 38932 ft 475 kts 53°
2026-05-08 04:17 42.02691 -101.75569 38929 ft 475 kts 53°
2026-05-08 04:17 42.06101 -101.67990 38921 ft 474 kts 53°
2026-05-08 04:18 42.09494 -101.60429 38925 ft 473 kts 53°
2026-05-08 04:18 42.12871 -101.52885 38928 ft 473 kts 53°
2026-05-08 04:19 42.16266 -101.45281 38930 ft 472 kts 53°
2026-05-08 04:19 42.19626 -101.37739 38927 ft 473 kts 53°
2026-05-08 04:20 42.23000 -101.30145 38915 ft 472 kts 54°
2026-05-08 04:20 42.26377 -101.22523 38907 ft 472 kts 54°
2026-05-08 04:21 42.29724 -101.14948 38921 ft 472 kts 54°
2026-05-08 04:21 42.33075 -101.07347 38901 ft 471 kts 54°
2026-05-08 04:22 42.36396 -100.99796 38900 ft 469 kts 54°
2026-05-08 04:22 42.39696 -100.92271 38926 ft 467 kts 54°
2026-05-08 04:23 42.43021 -100.84670 38934 ft 467 kts 54°
2026-05-08 04:23 42.46302 -100.77151 38930 ft 467 kts 54°
2026-05-08 04:24 42.49596 -100.69585 38936 ft 467 kts 54°
2026-05-08 04:24 42.52881 -100.62018 38933 ft 467 kts 54°
2026-05-08 04:25 42.56171 -100.54420 38928 ft 468 kts 54°
2026-05-08 04:25 42.59477 -100.46766 38922 ft 468 kts 54°
2026-05-08 04:26 42.62751 -100.39166 38923 ft 469 kts 54°
2026-05-08 04:26 42.66029 -100.31536 38910 ft 469 kts 55°
2026-05-08 04:27 42.69291 -100.23926 38913 ft 469 kts 55°
2026-05-08 04:27 42.72570 -100.16254 38917 ft 468 kts 54°
2026-05-08 04:28 42.75827 -100.08616 38904 ft 468 kts 54°
2026-05-08 04:28 42.79073 -100.00980 38909 ft 468 kts 55°
2026-05-08 04:29 42.82321 -99.93321 38897 ft 468 kts 55°
2026-05-08 04:29 42.85554 -99.85680 38931 ft 468 kts 55°
2026-05-08 04:30 42.88795 -99.77997 38895 ft 468 kts 54°
2026-05-08 04:30 42.92021 -99.70331 38896 ft 468 kts 55°
2026-05-08 04:31 42.95263 -99.62605 38878 ft 468 kts 55°
2026-05-08 04:31 42.98487 -99.54903 38882 ft 468 kts 55°
2026-05-08 04:32 43.01692 -99.47224 38869 ft 468 kts 55°
2026-05-08 04:32 43.04919 -99.39473 38862 ft 469 kts 55°
2026-05-08 04:33 43.08124 -99.31756 38875 ft 468 kts 55°
2026-05-08 04:33 43.11317 -99.24043 38878 ft 468 kts 56°
2026-05-08 04:34 43.14526 -99.16275 38865 ft 468 kts 56°
2026-05-08 04:34 43.17707 -99.08553 38863 ft 468 kts 56°
2026-05-08 04:35 43.20894 -99.00794 38882 ft 468 kts 56°
2026-05-08 04:35 43.24084 -98.93009 38872 ft 468 kts 56°
2026-05-08 04:36 43.27231 -98.85306 38881 ft 467 kts 56°
2026-05-08 04:36 43.30410 -98.77506 38907 ft 468 kts 56°
2026-05-08 04:37 43.33567 -98.69738 38896 ft 468 kts 56°